Location: Unspecified
(0.0000°N, 0.0000°E)
Time: 04:10:15
(UTC+00:00)

Tiangong - Pass Details

Date: 25 March 2026
Orbit: 375 x 384 km, 41.5° (Epoch: 20 April)

Event Time Altitude Azimuth Distance (km) Brightness Sun altitude
Rises 19:59:28 0° 255° (WSW) 2,235 2.8 -28.4°
Reaches altitude 10° 20:02:13 10° 282° (WNW) 1,378 1.6 -29.1°
Enters shadow 20:02:48 12° 291° (WNW) 1,258 1.2 -29.2°
